Probability
29 32 39 52 45 45 55 58 61 61 61 61 55 58 55 52 48 39 39 35 29 23 16 10 3 3 0 3 6 3 0 0 0 0 0 0 0 3 0 0 0 0 0
26 26 42 52 55 52 48 45 52 58 58 58 61 55 55 48 45 32 35 42 29 23 16 10 3 6 3 6 3 3 3 3 0 0 0 0 3 3 0 0 0 0 3
23 26 35 48 52 48 48 52 48 48 52 52 48 45 39 48 45 45 45 35 39 29 19 16 13 10 6 3 6 3 0 0 0 0 0 0 0 0 0 0 0 6 3
23 26 29 45 45 45 45 42 48 42 42 39 35 39 35 35 39 39 45 42 35 23 26 26 19 16 6 3 3 3 0 0 0 0 0 0 0 0 0 0 0 3 6
23 29 32 35 42 39 39 42 42 39 39 35 35 35 35 39 39 39 42 35 32 35 32 26 26 19 16 3 3 0 0 0 0 0 0 0 0 0 0 0 0 3 0
26 23 29 35 35 35 32 35 35 32 32 35 35 35 35 35 35 39 39 35 35 32 26 23 26 23 19 10 6 0 0 3 0 0 0 0 0 0 0 0 0 0 3
26 26 26 35 35 32 32 32 32 32 32 35 35 32 29 32 32 35 39 32 35 23 23 16 16 23 16 10 10 0 0 0 0 0 0 0 0 0 0 3 3 0 3
23 23 23 26 26 32 29 32 32 32 32 32 32 32 29 26 26 26 26 35 26 26 23 16 10 19 19 10 10 6 3 0 0 0 0 0 0 0 0 0 0 3 3
19 19 23 16 13 16 23 23 23 26 32 32 32 32 29 29 26 29 26 23 26 26 26 13 13 6 19 10 13 6 3 0 0 0 0 0 0 0 0 0 0 3 3
16 19 13 13 13 13 16 13 13 13 19 23 23 16 13 16 19 19 13 13 16 23 23 19 16 10 13 10 0 3 0 0 0 0 0 0 0 0 0 0 0 3 6
10 10 10 10 13 13 13 6 10 6 6 6 6 0 0 6 6 6 0 0 6 6 6 16 16 13 3 0 0 0 0 0 0 0 0 0 0 0 0 0 0 3 3
6 6 10 10 13 13 13 13 13 10 6 6 6 3 6 10 6 0 0 0 0 0 6 6 13 3 0 0 0 0 0 0 0 0 0 0 0 0 0 0 3 3 3
6 6 6 10 10 13 13 13 13 13 13 6 6 6 6 6 10 3 0 0 0 0 0 3 10 6 3 3 3 0 0 0 0 0 0 0 0 3 0 0 3 6 3
3 3 3 6 6 6 10 10 10 13 13 10 6 6 6 6 6 6 3 0 0 0 3 3 10 3 3 3 3 3 0 0 0 0 0 0 0 3 3 3 0 3 3
0 0 0 6 6 3 3 6 6 6 3 3 3 6 6 6 6 6 6 6 3 3 0 0 0 0 0 0 0 0 0 0 0 0 0 0 0 0 3 3 3 0 0
0 0 0 0 0 3 3 3 3 3 3 3 3 0 3 3 6 3 3 6 3 3 0 0 0 0 0 6 0 0 0 0 0 0 0 0 0 0 0 3 3 0 0
0 0 0 0 0 0 0 0 3 3 3 3 0 0 0 0 3 3 0 0 0 0 0 0 0 0 0 0 3 0 0 0 0 0 0 0 0 0 0 0 0 0 3
0 0 0 0 0 0 0 0 0 0 0 0 0 3 0 0 0 0 0 0 0 0 0 0 0 0 3 0 0 0 0 0 0 0 0 0 0 0 0 0 0 0 0
0 0 0 0 0 0 0 0 0 0 0 0 0 0 0 0 0 0 0 0 0 0 0 0 0 0 0 0 0 0 0 0 0 0 0 0 0 0 0 0 0 0 0
0 0 0 0 0 0 0 0 0 0 0 0 0 0 0 0 0 0 0 0 0 0 0 0 0 3 0 0 0 0 0 0 0 0 0 0 0 0 0 0 0 0 0
0 0 0 0 0 0 0 0 0 0 0 0 0 0 0 0 0 0 0 0 0 0 0 0 0 0 0 0 3 0 0 0 0 0 0 0 0 0 0 0 0 0 0
0 0 0 0 0 0 0 0 0 0 0 0 0 0 0 0 0 0 0 0 0 0 0 0 0 0 0 0 0 0 0 0 0 0 0 0 0 0 0 0 0 0 0
0 0 0 0 0 0 0 0 0 0 0 0 0 0 0 0 0 0 0 0 0 0 0 0 0 0 0 0 0 0 0 0 0 0 0 0 0 0 0 0 0 0 0
0 0 0 0 0 0 0 0 0 0 0 0 0 0 0 0 0 0 0 0 0 0 0 0 0 0 0 0 0 0 0 0 0 0 0 0 0 0 0 0 0 0 0
0 0 0 0 0 0 0 0 0 0 0 0 0 0 0 0 0 0 0 0 0 0 0 0 0 0 0 0 0 0 0 0 0 0 0 0 0 0 0 0 0 0 0
0 0 0 0 0 0 0 0 0 0 0 0 0 0 0 0 0 0 0 0 0 0 0 0 0 0 0 0 0 0 0 0 0 0 0 0 0 0 0 0 0 0 0
Height
5877 5877 5877 5878 5878 5878 5879 5879 5879 5880 5880 5879 5879 5879 5879 5879 5878 5878 5878 5877 5877 5876 5876 5875 5875 5875 5875 5874 5874 5874 5874 5873 5873 5873 5873 5872 5872 5872 5871 5871 5871 5871 5871
5874 5875 5875 5876 5876 5876 5876 5877 5877 5877 5877 5877 5877 5877 5877 5876 5876 5876 5876 5875 5875 5874 5874 5873 5873 5873 5872 5872 5872 5872 5871 5871 5871 5871 5871 5870 5870 5870 5870 5869 5869 5869 5869
5871 5872 5873 5873 5873 5874 5874 5874 5874 5875 5875 5875 5874 5874 5874 5874 5874 5873 5873 5873 5872 5872 5872 5871 5871 5870 5870 5870 5869 5869 5869 5869 5869 5868 5868 5868 5868 5867 5867 5867 5867 5867 5866
5868 5869 5869 5870 5870 5871 5871 5871 5871 5871 5871 5871 5871 5871 5871 5871 5871 5870 5870 5870 5869 5869 5869 5868 5868 5868 5867 5867 5867 5866 5866 5866 5866 5865 5865 5865 5865 5865 5864 5864 5864 5864 5864
5865 5865 5866 5867 5867 5867 5867 5867 5868 5868 5868 5868 5868 5868 5867 5867 5867 5867 5866 5866 5866 5866 5865 5865 5865 5864 5864 5864 5863 5863 5863 5863 5862 5862 5862 5862 5862 5861 5861 5861 5861 5861 5861
5861 5862 5862 5863 5863 5864 5864 5864 5864 5864 5864 5864 5864 5864 5863 5863 5863 5863 5862 5862 5862 5862 5861 5861 5861 5860 5860 5860 5860 5859 5859 5859 5859 5858 5858 5858 5858 5858 5858 5858 5858 5858 5857
5857 5857 5858 5859 5859 5859 5860 5860 5859 5859 5859 5859 5859 5859 5859 5859 5858 5858 5858 5857 5857 5857 5857 5857 5856 5856 5856 5855 5855 5855 5855 5855 5854 5854 5854 5854 5854 5854 5854 5854 5854 5854 5854
5852 5853 5853 5854 5854 5855 5855 5855 5855 5855 5855 5854 5854 5854 5854 5854 5853 5853 5853 5852 5852 5852 5852 5852 5851 5851 5851 5850 5850 5850 5850 5850 5850 5849 5849 5849 5849 5849 5849 5849 5849 5849 5849
5847 5848 5849 5849 5849 5850 5850 5850 5850 5850 5849 5849 5849 5849 5848 5848 5848 5847 5847 5847 5847 5846 5846 5846 5846 5846 5845 5845 5845 5845 5845 5844 5844 5844 5844 5844 5844 5844 5844 5844 5844 5844 5844
5842 5843 5843 5844 5844 5845 5845 5844 5844 5844 5844 5843 5843 5843 5842 5842 5842 5841 5841 5840 5840 5840 5840 5840 5840 5840 5839 5839 5839 5839 5839 5839 5839 5838 5838 5838 5839 5839 5839 5839 5839 5839 5839
5837 5838 5838 5839 5839 5839 5839 5838 5838 5838 5838 5837 5837 5836 5836 5835 5835 5834 5834 5834 5833 5833 5833 5833 5833 5833 5832 5832 5832 5832 5832 5832 5832 5832 5832 5832 5832 5832 5832 5833 5833 5833 5833
5832 5833 5833 5833 5833 5833 5832 5832 5832 5831 5831 5830 5830 5829 5829 5828 5827 5827 5827 5826 5826 5825 5825 5825 5825 5825 5825 5825 5825 5824 5824 5825 5825 5825 5825 5825 5825 5825 5826 5826 5826 5826 5827
5826 5827 5827 5827 5827 5826 5826 5825 5824 5824 5824 5823 5822 5822 5821 5820 5820 5819 5819 5818 5818 5817 5817 5817 5817 5817 5817 5817 5817 5817 5817 5817 5817 5817 5818 5818 5818 5818 5818 5819 5819 5819 5820
5821 5821 5821 5821 5820 5820 5819 5818 5817 5817 5816 5815 5814 5814 5813 5813 5812 5811 5810 5810 5809 5808 5808 5808 5807 5808 5808 5808 5808 5808 5808 5808 5808 5809 5809 5810 5810 5810 5810 5811 5811 5811 5812
5815 5815 5815 5814 5814 5813 5812 5811 5810 5809 5808 5808 5807 5806 5805 5804 5803 5802 5801 5801 5800 5799 5799 5799 5798 5798 5798 5798 5799 5799 5799 5799 5799 5799 5800 5800 5801 5801 5801 5802 5803 5803 5804
5809 5809 5808 5808 5807 5807 5806 5805 5804 5802 5801 5800 5799 5798 5797 5796 5795 5794 5793 5792 5791 5790 5790 5789 5789 5789 5788 5788 5789 5789 5789 5789 5789 5789 5790 5790 5791 5791 5792 5793 5793 5794 5794
5802 5802 5802 5802 5801 5800 5799 5798 5797 5796 5794 5793 5791 5790 5789 5788 5787 5786 5785 5784 5782 5781 5780 5780 5779 5778 5778 5778 5778 5778 5779 5779 5778 5778 5779 5779 5780 5781 5781 5782 5783 5784 5784
5796 5796 5796 5795 5794 5793 5792 5791 5790 5789 5787 5785 5784 5783 5782 5780 5779 5777 5776 5775 5773 5772 5771 5770 5769 5768 5768 5768 5768 5768 5768 5768 5768 5767 5767 5768 5768 5769 5770 5771 5772 5773 5774
5790 5789 5789 5788 5788 5787 5786 5784 5783 5782 5780 5778 5777 5775 5774 5772 5770 5769 5767 5766 5764 5763 5761 5760 5759 5758 5757 5757 5757 5756 5756 5756 5756 5756 5756 5756 5756 5757 5758 5759 5760 5761 5762
5783 5783 5782 5782 5781 5780 5779 5778 5776 5775 5773 5771 5769 5767 5766 5764 5762 5761 5759 5757 5755 5753 5752 5750 5749 5747 5747 5746 5746 5745 5745 5744 5744 5744 5744 5744 5745 5745 5746 5747 5747 5749 5750
5777 5776 5776 5775 5774 5773 5772 5770 5769 5767 5765 5764 5762 5760 5758 5756 5754 5752 5750 5748 5746 5744 5742 5740 5738 5737 5736 5735 5734 5734 5733 5732 5732 5731 5731 5732 5732 5733 5733 5733 5734 5735 5737
5770 5769 5769 5768 5767 5766 5764 5763 5761 5760 5758 5756 5754 5752 5750 5748 5746 5744 5742 5740 5737 5735 5733 5731 5729 5727 5725 5724 5723 5722 5722 5721 5720 5719 5719 5719 5719 5720 5720 5720 5721 5722 5723
5763 5763 5762 5761 5760 5758 5757 5755 5754 5752 5750 5748 5746 5744 5741 5739 5737 5735 5733 5731 5729 5726 5724 5721 5719 5717 5715 5713 5711 5710 5710 5710 5709 5708 5707 5706 5706 5706 5707 5706 5707 5707 5708
5756 5755 5754 5753 5752 5751 5749 5748 5746 5744 5742 5740 5738 5736 5734 5731 5729 5727 5724 5722 5720 5717 5715 5712 5709 5707 5705 5703 5701 5699 5698 5697 5697 5697 5696 5694 5693 5693 5693 5693 5693 5693 5694
5748 5748 5747 5746 5745 5743 5742 5740 5738 5737 5735 5732 5730 5728 5725 5723 5720 5718 5716 5713 5711 5708 5705 5702 5700 5697 5695 5693 5691 5689 5687 5685 5684 5684 5684 5683 5682 5681 5680 5680 5680 5680 5681
5741 5741 5740 5738 5737 5735 5734 5732 5730 5729 5726 5724 5722 5719 5717 5714 5712 5709 5706 5704 5701 5698 5695 5692 5689 5687 5684 5682 5679 5677 5675 5674 5672 5672 5672 5671 5670 5669 5668 5667 5667 5668 5668
Wind_Speed
13 13 12 12 12 12 12 12 12 12 12 12 12 12 12 11 11 10 10 10 10 10 10 11 11 11 11 11 11 11 11 11 10 10 9 9 9 9 9 9 9 9 8
15 14 14 14 14 14 13 13 14 14 14 14 14 14 14 14 13 13 13 12 12 12 12 12 12 12 12 12 12 12 12 12 12 12 12 12 11 11 11 11 10 10 10
17 16 16 16 16 16 16 16 16 16 16 16 16 16 16 16 15 15 14 14 14 14 14 14 14 14 14 14 14 14 15 15 14 14 14 14 14 14 13 13 12 12 12
18 18 18 18 18 18 18 18 18 18 18 18 18 18 18 18 18 17 17 17 16 17 17 17 17 16 16 16 16 16 16 16 16 16 16 16 15 15 15 15 15 14 14
19 19 19 19 20 20 20 20 20 20 20 20 20 20 20 20 20 20 20 19 19 19 19 19 19 19 19 19 18 18 18 18 18 18 18 18 17 17 17 17 17 16 16
21 21 21 21 21 21 21 21 22 22 22 22 22 22 22 22 22 22 22 22 21 21 21 21 21 22 22 21 21 21 21 21 20 20 20 20 20 19 19 19 19 18 18
23 23 23 23 23 23 23 23 23 24 24 24 24 24 24 24 24 24 24 24 23 23 23 23 23 23 23 24 23 23 23 23 23 22 22 22 22 22 22 22 21 21 20
25 25 25 25 25 25 26 26 26 26 26 26 26 26 26 26 26 26 26 26 26 26 26 25 25 25 25 25 25 25 25 25 25 25 25 24 24 24 24 24 24 24 23
27 27 27 27 27 27 27 28 28 28 28 28 28 28 28 28 29 29 28 28 28 28 28 28 28 28 28 28 27 27 27 27 27 28 28 27 27 27 27 27 26 26 26
27 27 27 27 28 28 28 28 29 29 30 30 30 31 31 31 31 31 31 31 31 31 31 31 31 31 30 30 31 30 30 30 29 29 29 29 29 29 29 29 29 28 28
28 28 29 29 29 29 30 30 30 31 31 32 32 32 33 33 33 34 34 34 34 34 34 34 33 34 33 33 33 34 33 33 32 32 32 32 31 31 31 31 31 31 31
29 29 29 30 30 31 32 32 33 33 33 34 34 34 34 34 35 35 35 36 36 36 36 36 36 36 36 35 35 35 36 36 35 35 34 34 34 34 34 34 33 33 33
29 29 30 30 31 31 32 33 34 34 35 35 35 35 35 35 35 36 36 36 37 38 38 38 38 38 38 38 37 37 37 38 38 37 37 37 37 36 36 36 36 35 35
30 30 30 31 31 31 31 32 33 34 34 35 35 35 36 36 37 37 37 37 38 38 39 39 40 40 40 40 40 39 39 40 40 39 39 39 39 38 38 38 38 37 37
29 29 29 29 30 30 30 31 31 32 32 33 34 35 36 36 37 37 37 38 38 39 39 39 40 41 41 42 42 42 41 42 42 42 41 41 41 41 40 40 39 39 39
29 29 29 29 30 31 31 31 31 32 32 33 34 35 35 36 36 37 37 38 38 38 39 40 40 41 42 43 43 43 43 44 44 44 44 44 44 44 44 43 42 42 42
29 29 29 30 30 30 31 31 31 32 33 33 34 35 35 36 37 37 38 38 39 40 40 41 42 42 43 44 44 45 45 46 46 46 47 47 46 46 46 45 45 44 44
30 30 30 30 30 31 31 31 31 32 32 33 34 35 36 37 37 38 39 39 40 40 41 41 42 42 44 44 45 46 46 47 47 47 48 48 48 48 48 48 46 45 45
30 30 30 30 31 31 31 31 32 32 33 33 34 35 36 36 36 37 38 39 39 40 41 41 42 42 42 43 44 45 46 47 47 48 48 48 48 49 50 50 49 48 48
30 30 31 31 32 32 33 33 33 34 34 34 34 35 35 36 37 37 37 38 38 39 40 40 41 43 44 44 44 45 46 47 48 50 50 49 48 49 50 51 52 51 51
31 32 32 32 32 33 33 34 35 35 35 35 35 35 35 35 36 36 37 37 37 38 39 40 41 43 44 45 45 46 47 47 49 49 50 50 50 50 51 52 52 53 53
32 32 32 33 33 33 34 34 34 34 35 35 35 35 36 36 37 37 37 37 38 38 39 40 41 42 43 44 45 46 46 47 48 49 49 49 51 51 51 52 53 54 54
32 33 33 34 34 34 34 34 35 35 35 35 36 36 36 36 37 37 36 36 37 37 38 39 39 40 41 42 43 44 45 46 47 49 50 51 52 52 52 53 53 54 54
32 33 34 33 33 33 33 34 34 34 34 35 35 36 35 36 36 36 37 37 37 37 37 38 39 39 40 40 41 42 43 44 45 46 48 49 50 50 51 51 52 53 54
32 32 32 32 32 33 33 33 34 34 35 35 35 36 36 37 37 37 37 38 38 38 38 39 40 40 41 41 41 42 43 44 45 44 45 46 47 48 48 49 50 51 53
30 31 31 32 33 33 33 34 34 35 35 36 36 36 37 37 37 38 38 38 39 39 40 40 40 41 41 41 41 42 43 44 45 45 45 46 46 48 48 48 49 50 51
Wind_Direction
246 247 248 250 252 255 256 257 259 262 265 266 268 270 272 273 273 273 273 273 273 272 272 272 272 271 270 268 266 265 265 265 264 265 265 265 264 264 266 268 270 271 272
248 250 251 253 255 257 260 260 261 264 266 268 270 271 272 273 274 273 272 272 271 271 271 271 271 271 270 269 267 266 266 265 264 264 265 264 264 264 265 265 266 267 269
250 252 254 256 258 260 263 264 265 266 267 269 270 271 272 273 274 274 273 272 271 271 270 270 270 270 269 268 267 267 267 267 265 263 264 264 264 263 264 264 264 265 266
251 253 256 258 260 262 264 266 267 267 267 269 270 271 272 272 273 274 273 273 271 270 270 270 270 270 269 269 268 267 267 267 266 264 264 264 264 263 262 262 262 262 264
253 255 257 259 262 264 265 267 268 268 269 270 271 272 273 273 272 272 272 271 270 270 270 270 269 269 270 269 268 268 267 267 266 266 265 264 264 263 262 262 262 262 262
255 257 259 261 263 265 267 267 268 269 270 271 272 272 272 273 273 273 272 271 270 270 270 270 269 269 269 269 268 267 267 267 267 266 266 265 264 263 263 261 261 262 262
257 259 262 263 264 265 267 269 270 271 271 272 273 273 273 273 273 273 273 272 271 270 270 270 269 268 268 268 268 268 268 267 266 266 265 265 265 264 263 261 261 262 262
258 261 263 265 266 267 268 270 271 272 272 272 273 273 273 273 274 273 273 272 271 271 270 270 270 269 268 268 268 268 268 267 267 266 266 265 265 264 264 263 262 261 262
259 262 264 266 267 268 269 271 272 272 273 273 273 273 273 273 273 273 273 272 271 270 270 269 269 269 269 269 269 269 269 268 268 267 267 266 265 265 265 264 264 262 262
259 261 264 266 268 269 270 271 272 272 273 274 274 274 274 273 273 273 273 272 272 271 270 270 269 269 269 269 269 269 269 269 268 268 268 267 266 266 266 265 264 264 263
260 262 265 267 269 270 271 272 273 273 274 275 275 275 274 274 273 272 272 272 272 271 270 270 269 268 269 269 269 268 268 269 269 268 268 268 267 267 266 266 265 265 264
262 264 267 269 270 272 273 273 273 273 274 274 275 275 275 275 274 274 273 272 271 271 271 270 269 268 268 268 269 268 268 268 268 268 268 268 268 267 267 266 265 265 264
264 266 268 270 272 274 274 273 273 273 274 274 275 275 275 275 275 275 274 273 272 272 271 270 269 269 268 268 268 268 268 268 269 268 268 268 268 268 267 266 266 265 264
265 267 270 271 273 274 275 275 275 275 275 275 275 275 275 276 276 276 275 274 273 273 272 271 269 268 268 267 267 267 268 267 267 268 268 268 268 267 267 267 267 266 265
266 269 270 271 272 273 275 277 277 277 277 276 276 275 275 275 276 276 276 275 274 273 272 271 270 269 268 267 267 266 266 266 266 267 267 267 267 267 267 267 267 266 266
266 268 269 271 273 274 275 277 278 278 277 277 277 276 276 276 277 277 277 276 275 274 273 272 271 270 269 268 267 267 267 266 266 266 266 266 266 266 266 265 265 265 265
265 267 269 271 273 275 276 278 278 278 278 278 277 278 278 278 277 277 277 276 275 275 275 274 273 271 270 268 267 267 267 266 266 266 266 265 265 265 265 265 264 264 263
265 266 269 271 273 275 277 278 279 280 280 280 279 279 279 279 279 279 279 278 276 276 275 275 275 273 271 270 269 268 267 267 267 267 266 265 264 264 264 264 264 263 262
265 266 268 271 273 276 277 278 279 280 281 282 282 281 280 280 281 281 282 281 280 278 277 276 275 274 273 271 270 269 269 268 268 268 267 267 266 265 263 263 262 261 262
265 267 270 272 275 276 277 277 279 280 281 283 283 283 282 281 281 282 283 283 281 280 279 278 277 275 274 273 271 270 270 269 268 267 266 266 266 265 265 263 262 261 261
266 268 271 273 275 276 277 278 279 281 282 283 283 283 282 282 283 283 283 282 283 282 281 280 279 278 275 273 273 272 271 270 268 268 266 265 265 265 265 265 263 262 261
268 270 272 274 275 276 276 278 279 281 282 283 284 284 283 283 284 285 285 284 283 283 283 283 282 280 278 276 275 275 273 270 269 268 267 265 265 265 265 265 263 262 261
269 271 274 275 276 276 277 278 279 281 282 283 284 285 285 286 286 286 285 285 286 285 285 285 285 284 281 279 277 276 274 271 269 269 268 267 266 266 265 265 263 260 259
271 273 275 275 276 278 279 280 281 281 283 284 285 286 285 285 286 285 285 286 286 287 286 286 286 285 284 282 280 278 277 274 271 270 269 268 267 267 266 266 265 263 260
270 273 274 275 277 279 280 282 282 283 284 284 285 286 286 286 286 286 286 287 286 287 288 287 286 285 284 283 281 279 278 276 273 272 271 270 269 268 267 265 264 263 262
271 273 275 276 278 280 281 282 283 284 284 285 285 285 286 286 286 287 287 287 287 288 289 288 288 287 286 284 282 280 279 277 273 271 272 272 270 269 268 267 265 263 263